This is the latest recevied weather packets stored in our database for station/object DB0MOE-6. If no packets are shown the sender has not sent any weather packets the latest 1 day(s).
| Time | Temp. | Humidity | Pressure | Rain* | Wind** | Luminosity | Snow |
|---|---|---|---|---|---|---|---|
| 1777987762 | 16.11° C | 78% | 988.2 hPa | 0 mm | 0.45 m/s, 329° | - | - |
| 1777987702 | 16.11° C | 77% | 988.2 hPa | 0 mm | 0.45 m/s, 294° | - | - |
| 1777987642 | 16.11° C | 78% | 988.1 hPa | 0 mm | 0.45 m/s, 327° | - | - |
| 1777987582 | 16.11° C | 78% | 988.2 hPa | 0 mm | 0.45 m/s, 327° | - | - |
| 1777987522 | 16.11° C | 78% | 988.1 hPa | 0 mm | 0 m/s | - | - |
| 1777987462 | 16.11° C | 78% | 988.3 hPa | 0 mm | 0.45 m/s, 338° | - | - |
| 1777987401 | 16.11° C | 78% | 988.3 hPa | 0 mm | 0.45 m/s, 338° | - | - |
| 1777987341 | 15.56° C | 78% | 988.4 hPa | 0 mm | 0.45 m/s, 351° | - | - |
| 1777987281 | 15.56° C | 77% | 988.3 hPa | 0 mm | 0.45 m/s, 339° | - | - |
| 1777987221 | 15.56° C | 77% | 988.2 hPa | 0 mm | 0.45 m/s, 5° | - | - |
| 1777987161 | 16.11° C | 78% | 988.3 hPa | 0 mm | 0.45 m/s, 45° | - | - |
| 1777987101 | 16.11° C | 76% | 988.3 hPa | 0 mm | 0.45 m/s, 26° | - | - |
| 1777987041 | 16.11° C | 76% | 988.3 hPa | 0 mm | 0.45 m/s, 22° | - | - |
| 1777986981 | 16.11° C | 77% | 988.4 hPa | 0 mm | 0.45 m/s, 29° | - | - |
| 1777986921 | 15.56° C | 81% | 988.3 hPa | 0 mm | 0 m/s | - | - |
| 1777986861 | 15.56° C | 81% | 988.4 hPa | 0 mm | 0 m/s | - | - |
| 1777986801 | 15.56° C | 79% | 988.3 hPa | 0 mm | 0.45 m/s, 321° | - | - |
| 1777986743 | 16.11° C | 77% | 988.4 hPa | 0 mm | 0.89 m/s, 10° | - | - |
| 1777986683 | 16.11° C | 77% | 988.5 hPa | 0 mm | 0.89 m/s, 45° | - | - |
| 1777986623 | 16.11° C | 78% | 988.5 hPa | 0 mm | 0.45 m/s, 358° | - | - |
| 1777986563 | 16.11° C | 80% | 988.3 hPa | 0 mm | 0.45 m/s, 22° | - | - |
| 1777986503 | 16.11° C | 80% | 988.4 hPa | 0 mm | 0.45 m/s, 27° | - | - |
| 1777986443 | 16.11° C | 80% | 988.5 hPa | 0 mm | 0.45 m/s, 318° | - | - |
| 1777986383 | 15.56° C | 80% | 988.5 hPa | 0 mm | 0.45 m/s, 277° | - | - |
| 1777986323 | 15.56° C | 79% | 988.4 hPa | 0 mm | 0.45 m/s, 284° | - | - |
* Rain latest hour (hover to see other rain measurements)
** Current wind speed in m/s (hover to see current wind gust speed)